Vorticity
nan nan nan nan nan nan nan nan nan nan nan nan nan nan nan nan nan nan nan nan nan nan nan nan nan nan nan nan nan nan nan nan nan nan nan nan nan nan nan nan nan nan nan nan nan
nan 7 7 7 7 7 7 7 7 8 8 8 8 8 8 12 17 11 10 13 12 6 3 7 5 7 7 7 9 9 8 6 4 0 -2 8 9 3 9 3 8 11 19 13 nan
nan 7 7 7 7 7 7 7 8 8 9 9 9 9 9 12 14 17 18 10 6 3 1 4 6 8 6 7 7 5 1 4 5 8 6 11 9 5 3 8 12 14 11 4 nan
nan 7 6 7 7 7 7 7 8 9 9 9 9 9 12 11 6 13 12 9 7 4 6 7 7 6 7 8 8 7 9 4 5 12 8 15 12 10 5 8 16 19 5 5 nan
nan 7 7 7 7 7 7 7 8 9 10 11 10 11 12 10 10 11 8 6 5 8 9 6 6 6 6 3 8 9 9 13 9 4 8 11 10 8 6 13 17 11 6 4 nan
nan 7 7 7 7 7 7 7 7 9 11 12 10 10 10 6 19 10 7 5 7 5 5 8 7 7 4 6 6 6 7 11 15 13 8 9 5 8 13 9 10 6 4 5 nan
nan 7 7 7 8 8 7 7 8 9 10 11 11 8 9 14 10 7 4 5 7 5 4 6 5 4 7 11 7 7 11 6 3 15 18 12 3 7 11 13 4 5 4 10 nan
nan 7 7 7 8 8 9 8 10 11 10 8 8 11 8 14 8 8 3 6 6 5 3 7 11 5 8 6 9 11 13 12 -0 3 6 14 12 5 3 8 13 14 8 10 nan
nan 7 7 8 8 9 9 13 23 17 9 6 6 8 8 7 12 10 6 6 8 3 8 10 10 9 8 12 11 10 11 -2 4 10 13 1 6 14 13 5 -2 30 24 -4 nan
nan 8 8 8 8 9 15 25 22 14 10 6 4 6 14 10 15 9 5 6 9 8 6 9 12 8 7 10 4 5 7 9 5 5 10 -0 16 18 10 2 10 3 -1 17 nan
nan 8 8 9 9 11 20 18 8 9 9 5 1 -4 5 15 9 9 9 10 5 7 9 6 5 6 6 3 3 4 9 11 8 2 9 10 22 15 6 4 4 13 13 1 nan
nan 8 8 8 10 20 16 3 10 5 7 11 5 6 7 10 5 8 10 6 6 6 3 7 7 6 4 4 8 9 10 9 20 18 2 9 11 5 6 12 10 4 11 19 nan
nan 8 8 9 25 24 8 8 6 11 14 16 21 14 13 9 8 9 6 5 4 6 7 7 4 8 8 6 8 10 7 7 4 17 13 10 3 6 6 7 18 11 2 -1 nan
nan 8 5 23 24 9 10 8 7 14 14 18 18 16 14 8 9 12 11 2 4 9 8 5 9 7 9 10 8 7 6 9 13 13 12 5 8 5 13 8 6 5 6 6 nan
nan 9 15 23 10 5 3 3 11 12 10 17 14 12 18 6 6 18 10 5 5 4 6 4 8 12 9 7 9 7 6 10 11 10 9 6 14 11 8 11 13 13 5 6 nan
nan 7 19 19 10 6 3 10 14 11 7 9 12 9 6 10 2 11 15 6 8 11 6 7 5 9 13 10 6 7 10 12 11 7 6 15 9 12 8 7 10 13 9 5 nan
nan 13 17 10 4 3 16 19 11 5 8 12 9 6 6 8 9 10 9 4 5 8 8 11 14 10 6 6 16 13 8 9 8 13 10 8 9 10 12 9 11 16 17 10 nan
nan 30 24 9 2 7 14 11 10 10 2 6 16 14 9 7 11 8 4 9 5 4 10 12 12 15 7 8 10 8 9 4 6 6 7 10 12 11 9 17 20 13 13 9 nan
nan 30 11 12 12 7 12 11 8 3 -2 2 13 21 18 12 10 12 7 7 7 7 3 6 9 15 11 8 6 7 11 9 4 5 10 8 5 10 11 12 19 18 5 6 nan
nan 12 14 16 11 6 7 9 5 -4 1 9 13 14 11 8 10 14 17 10 9 8 3 -3 11 7 21 16 7 10 3 7 12 13 11 10 8 5 4 9 12 14 4 9 nan
nan 12 20 16 3 6 8 7 6 6 6 2 6 9 9 8 8 17 14 15 13 10 9 7 6 4 9 13 10 4 8 9 15 8 10 9 14 23 5 4 9 13 21 5 nan
nan 14 14 8 4 7 6 2 -0 2 6 12 12 7 5 5 8 13 21 15 14 15 12 12 5 13 4 10 10 10 9 7 3 8 11 7 16 16 13 12 6 -0 18 12 nan
nan 13 11 6 5 6 9 6 1 8 8 6 11 11 5 8 9 8 9 6 8 24 17 14 9 6 8 20 19 9 7 9 6 12 7 7 11 1 11 8 7 12 -1 15 nan
nan 13 14 9 8 6 8 14 17 13 7 7 11 9 9 10 8 6 6 5 9 16 7 12 16 14 7 6 2 6 13 11 5 3 13 9 12 13 10 5 3 5 4 19 nan
nan 7 8 9 7 10 17 10 6 9 21 19 10 7 9 11 9 8 9 7 15 9 6 7 7 4 9 9 3 15 7 6 8 8 10 19 12 10 6 8 13 19 22 2 nan
nan 9 7 8 6 10 12 12 13 11 8 14 8 6 8 10 13 8 9 12 9 9 13 8 9 8 8 7 12 11 19 21 14 13 5 9 12 14 15 13 15 13 15 7 nan
nan nan nan nan nan nan nan nan nan nan nan nan nan nan nan nan nan nan nan nan nan nan nan nan nan nan nan nan nan nan nan nan nan nan nan nan nan nan nan nan nan nan nan nan nan
CAPE
0 0 0 0 0 0 0 0 1 2 1 2 0 3 2 2 0 0 0 0 0 752 566 0 0 0 0 0 0 0 0 27 301 268 117 140 96 140 100 306 251 709 834 1338 2121
0 0 0 0 0 0 0 0 1 1 2 2 2 1 1 0 0 0 0 105 251 284 0 0 0 0 0 0 0 0 0 0 65 39 182 140 110 13 96 5 76 244 2383 2420 2153
0 0 0 0 0 0 0 0 1 2 2 1 1 0 1 0 0 0 219 369 392 67 0 0 0 0 0 0 0 0 160 35 0 32 145 45 165 0 195 227 115 151 2402 2248 1992
0 0 0 0 0 0 0 0 0 2 1 1 0 1 0 0 0 0 79 266 239 0 0 0 0 0 0 0 0 0 3 204 314 230 251 12 48 256 179 413 457 212 1876 2043 1760
0 0 0 0 0 0 0 0 0 2 0 0 1 0 0 0 0 0 18 1 0 0 0 0 0 0 0 0 0 0 0 10 279 75 62 8 69 341 338 297 482 194 1611 1955 1867
0 0 0 0 0 0 0 0 0 1 0 0 1 0 0 0 0 0 0 0 0 0 0 0 0 0 0 0 0 0 0 0 51 123 53 0 26 5 354 454 269 519 1575 1441 1668
0 0 0 0 0 0 0 0 0 0 0 1 1 0 0 0 0 0 0 0 0 0 0 0 0 0 0 0 0 0 0 0 0 6 87 21 72 7 51 693 959 1453 1661 1555 1457
0 0 0 0 0 0 0 0 0 0 0 1 1 0 0 0 0 0 0 0 0 0 0 0 0 0 0 0 0 0 0 0 0 3 33 1 0 84 39 98 31 1833 2013 2048 1320
0 0 0 0 0 0 0 0 0 0 2 0 0 0 0 0 0 0 0 0 0 0 0 0 0 0 0 0 0 0 0 5 9 2 25 0 23 479 137 233 357 264 1710 1859 1266
1 1 0 1 0 0 0 0 0 0 0 0 0 0 0 0 0 0 0 0 0 0 0 0 0 0 0 0 0 0 17 23 6 184 36 1 9 408 146 39 214 341 36 321 1362
1 1 1 0 0 0 0 0 0 13 0 0 0 0 0 0 0 0 0 0 0 0 0 0 0 0 0 0 0 0 0 188 124 237 14 39 14 514 145 218 48 89 0 0 1426
0 0 0 0 0 0 0 0 0 0 0 0 0 0 0 0 0 0 0 0 0 0 0 0 0 0 0 0 0 0 0 0 10 144 27 20 39 349 239 7 15 0 2 31 412
0 1 1 0 0 0 0 0 0 0 0 0 0 0 0 0 0 0 0 0 0 0 0 0 0 0 0 0 0 0 0 0 0 0 3 75 34 96 38 0 0 221 80 12 0
0 1 0 1 0 0 0 0 0 0 0 0 0 0 0 0 0 0 0 0 0 0 0 0 0 0 0 0 0 0 0 0 0 0 0 0 0 207 5 0 0 19 28 0 207
0 0 0 1 0 0 0 0 0 0 0 0 0 0 0 0 0 0 0 0 0 0 0 0 0 0 0 0 0 0 0 0 0 0 0 0 0 132 60 25 74 0 15 0 0
0 0 0 0 0 0 0 0 0 0 0 0 0 0 0 0 0 0 0 0 0 0 0 0 0 0 0 0 0 0 0 0 0 0 0 0 0 9 202 99 48 29 0 0 88
0 0 0 0 0 0 0 0 0 0 0 0 0 0 0 0 0 0 0 0 0 0 0 0 0 0 0 0 0 0 0 0 0 0 0 133 146 96 28 127 103 13 13 1488 2781
0 0 0 0 0 0 0 0 0 0 0 0 0 0 0 0 0 0 0 0 0 0 0 0 0 0 0 0 0 0 0 0 0 0 3 48 24 238 0 72 219 2135 2404 1324 1087
0 0 0 0 0 0 0 0 0 0 0 0 0 0 0 0 0 0 0 0 0 0 0 0 0 0 0 0 0 0 0 0 0 0 0 15 21 0 175 601 412 2446 1896 825 520
0 0 0 0 0 0 0 0 0 0 0 0 0 0 0 0 0 0 0 0 0 0 0 0 0 0 0 0 0 0 0 0 0 0 0 58 322 118 155 16 991 1604 1834 840 1259
0 0 0 0 0 0 0 0 0 0 0 0 0 0 0 0 0 0 0 0 0 0 0 0 0 0 0 0 0 0 0 0 0 0 0 148 138 171 109 416 537 307 1844 1519 1063
0 0 0 0 0 0 0 0 0 0 0 0 0 0 0 0 0 0 0 0 0 0 0 0 0 0 0 0 0 0 0 0 0 0 74 191 409 128 7 4 226 396 217 1585 1239
0 0 0 0 0 0 0 0 0 0 0 0 0 0 0 0 0 0 0 0 0 1 17 13 0 0 0 0 0 0 0 0 0 43 0 37 354 136 276 248 6 18 173 667 881
0 0 0 0 0 0 0 0 0 0 0 0 0 0 0 0 0 0 0 0 0 11 277 62 77 0 0 63 26 6 3 0 0 0 0 0 283 100 19 2 3 0 0 108 878
0 0 0 0 1 0 0 0 0 0 0 0 0 0 0 0 0 0 0 0 0 6 0 3 8 99 77 67 2 10 0 21 14 0 2 25 234 105 170 10 19 660 7 519 1741
0 0 0 0 0 0 0 0 0 0 0 0 0 0 0 0 0 0 0 0 0 0 0 2 22 117 89 106 77 11 15 97 67 0 0 38 116 253 94 208 515 12 49 0 1721
0 0 0 0 0 0 0 0 0 0 0 0 0 0 0 0 0 0 0 0 0 118 75 46 2 172 2 118 134 14 130 194 145 67 39 69 43 20 38 300 1405 898 386 1857 1413